Weather History for KFAY - November, 2013

Change the Weather History Date:

Wednesday, November 6, 2013

  Actual Average Record
Temperature  
Mean Temperature 62 °F 58 °F  
Max Temperature 75 °F 70 °F 85 °F (1938)
Min Temperature 48 °F 45 °F 25 °F (1954)
Degree Days  
Heating Degree Days 3 8  
Month to date heating degree days 44 46  
Since 1 July heating degree days 147 173  
Cooling Degree Days 0 1  
Month to date cooling degree days 9 6  
Year to date cooling degree days 1934 1984  
Growing Degree Days 10 (Base 50)    
Moisture  
Dew Point 53 °F    
Average Humidity 71    
Maximum Humidity 93    
Minimum Humidity 49    
Precipitation  
Precipitation 0.02 in 0.08 in 1.93 in (1963)
Month to date precipitation 0.71 0.47  
Year to date precipitation 37.25 39.51  
Sea Level Pressure  
Sea Level Pressure 30.24 in    
Wind  
Wind Speed 5 mph (NE)    
Max Wind Speed 13 mph    
Max Gust Speed 16 mph    
Visibility 9 miles    
Events Rain    
T = Trace of Precipitation, MM = Missing Value Source: NWS Daily Summary

Daily Weather History Graph

Daily Weather History Graph

Search for Another Location

Airport or City:

Trip Planner

Search our weather history database for the weather conditions in past years. The results will help you decide how hot, cold, wet, or windy it might be!

Date:

Astronomy

Nov. 06, 2013 Rise Set
Actual Time 6:41 AM EST 5:16 PM EST
Civil Twilight 6:14 AM EST 5:42 PM EST
Nautical Twilight 5:44 AM EST 6:12 PM EST
Astronomical Twilight 5:15 AM EST 6:42 PM EST
Moon 9:51 AM EST (11/6) 8:21 PM EST (11/6)
Length of Visible Light 11h 27m
Length of Day
10h 34m
Waxing Crescent, 13% of the Moon is Illuminated
Nov 6
Waxing Crescent
Nov 10
First Quarter
Nov 17
Full
Nov 25
Last Quarter
Dec 2
New

Hourly Weather History & Observations

Time (EST) Temp. Dew Point Humidity Pressure Visibility Wind Dir Wind Speed Gust Speed Precip Events Conditions
12:53 AM 50.0 °F 48.0 °F 93% 30.38 in 10.0 mi North 6.9 mph - N/A   Clear
1:53 AM 50.0 °F 46.9 °F 89% 30.35 in 10.0 mi NNE 6.9 mph - N/A   Clear
2:53 AM 50.0 °F 48.0 °F 93% 30.34 in 10.0 mi North 5.8 mph - N/A   Clear
3:53 AM 51.1 °F 48.9 °F 92% 30.33 in 10.0 mi NNE 6.9 mph - N/A   Clear
4:53 AM 50.0 °F 48.9 °F 96% 30.33 in 10.0 mi North 6.9 mph - N/A   Clear
5:53 AM 48.9 °F 46.9 °F 93% 30.33 in 7.0 mi North 5.8 mph - N/A   Clear
6:53 AM 48.0 °F 46.9 °F 96% 30.33 in 3.0 mi North 6.9 mph - N/A   Clear
6:56 AM 48.2 °F 46.4 °F 93% 30.34 in 10.0 mi NNE 6.9 mph - N/A   Clear
7:53 AM 51.1 °F 48.9 °F 92% 30.33 in 10.0 mi North 8.1 mph - N/A   Clear
8:53 AM 57.0 °F 50.0 °F 77% 30.33 in 10.0 mi NE 6.9 mph - N/A   Clear
9:53 AM 63.0 °F 51.1 °F 65% 30.33 in 10.0 mi Variable 6.9 mph - N/A   Clear
10:53 AM 69.1 °F 51.1 °F 53% 30.30 in 10.0 mi NE 9.2 mph - N/A   Partly Cloudy
11:53 AM 70.0 °F 52.0 °F 53% 30.28 in 10.0 mi East 6.9 mph - N/A   Mostly Cloudy
12:53 PM 73.0 °F 53.1 °F 49% 30.24 in 10.0 mi NE 8.1 mph - N/A   Overcast
1:53 PM 73.9 °F 54.0 °F 50% 30.22 in 10.0 mi NE 5.8 mph - N/A   Scattered Clouds
2:53 PM 73.0 °F 55.0 °F 53% 30.19 in 10.0 mi ENE 5.8 mph - N/A   Scattered Clouds
3:53 PM 73.9 °F 55.9 °F 53% 30.18 in 10.0 mi NE 3.5 mph - N/A   Clear
4:53 PM 71.1 °F 57.0 °F 61% 30.17 in 10.0 mi NE 3.5 mph - N/A   Partly Cloudy
5:53 PM 66.0 °F 57.9 °F 75% 30.17 in 10.0 mi ENE 4.6 mph - N/A   Mostly Cloudy
6:53 PM 66.0 °F 57.9 °F 75% 30.17 in 10.0 mi Calm Calm - N/A   Overcast
7:53 PM 64.0 °F 57.0 °F 78% 30.16 in 10.0 mi Calm Calm - N/A   Partly Cloudy
8:53 PM 62.1 °F 57.9 °F 86% 30.15 in 10.0 mi East 3.5 mph - N/A   Mostly Cloudy
9:53 PM 63.0 °F 60.1 °F 90% 30.14 in 10.0 mi ENE 4.6 mph - N/A   Overcast
10:51 PM 62.6 °F 60.8 °F 94% 30.14 in 10.0 mi Calm Calm - 0.00 in   Overcast
10:53 PM 63.0 °F 61.0 °F 93% 30.12 in 10.0 mi Calm Calm - 0.00 in   Overcast
11:21 PM 62.6 °F 60.8 °F 94% 30.13 in 9.0 mi Calm Calm - 0.00 in   Overcast
11:53 PM 63.0 °F 61.0 °F 93% 30.11 in 5.0 mi Calm Calm - 0.01 in Rain Light Rain